Regional Weather Roundup
Issued by NWS

Home | Current Version | Previous Version | Graphics & Text | Print | Product List | Glossary On
Versions: 1 2 3 4 5 6 7 8 9 10 11 12 13 14 15 16 17 18 19 20 21 22 23 24 25 26 27 28 29 30 31 32 33 34 35 36 37 38 39 40 41 42 43 44 45 46 47 48 49 50
959
ASUS43 KIND 261009
RWRIN

WEATHER ROUNDUP FOR INDIANA
NATIONAL WEATHER SERVICE INDIANAPOLIS IN
600 AM EDT FRI AUG 26 2016

NOTE: "FAIR" INDICATES FEW OR NO CLOUDS BELOW 12,000 FEET WITH NO
SIGNIFICANT WEATHER AND/OR OBSTRUCTIONS TO VISIBILITY.

* - STATION DOES NOT REPORT WEATHER SUCH AS PRECIPITATION OR FOG.

+ - STATION NOT QUALITY CONTROLLED BY THE NATIONAL WEATHER SERVICE.
    USE DATA WITH CAUTION...ESPECIALLY DEWPOINT AND RELATIVE
    HUMIDITY OBSERVATIONS.

INZ001>003-010>013-019-020-261100-
NORTHWEST INDIANA

CITY           SKY/WX    TMP DP  RH WIND       PRES   REMARKS
GARY /AIRPORT/ MOCLDY    66  64  94 N6        30.12R
KNOX *+          N/A     63  55  77 CALM      30.12R VSB 1/4
LA PORTE +     FAIR     N/A N/A N/A CALM      30.12S HAZE
MICHIGAN CITY+   N/A     63  63 100 MISG      30.12S FOG
MONTICELLO +   FAIR      69  66  88 CALM      30.10S FOG
RENSSELAER +   FAIR      68  68 100 CALM      30.11S FOG
VALPARAISO     FAIR      68  65  90 CALM      30.12R

$$

LMZ046-743>745-261100-
SOUTHERN LAKE MICHIGAN

STATION/POSITION TIME  TEMP    WIND        PRES    WAVE
                       AIR SEA DIR/SP/G            HT
                 (UTC) (F)     (DEG/KT/KT) (MB)    (FT)
BURNS HARBOR     0904   74     360/  7/  9 1020.0R
MICHIGAN CITY    0900   73     310/  6/  7   N/A
5NW MICH CITY    1000   74 74  360/  6/  8   N/A     1

$$

INZ004-005-014>016-021>024-261100-
NORTH CENTRAL INDIANA

CITY           SKY/WX    TMP DP  RH WIND       PRES   REMARKS
GOSHEN         FOG       64  62  93 CALM      30.12R VSB 1/4
LOGANSPORT +   FOG       68  68 100 CALM      30.10F VSB 1/4
PERU/GRISSOM   MOCLDY    70  70 100 NE6       30.09F FOG
ROCHESTER +    FOG       68  68 100 CALM      30.12R VSB 3/4
SOUTH BEND     FAIR      65  64  97 CALM      30.12R
WARSAW +       FOG       64  64 100 CALM      30.12S VSB 1/4

$$

INZ006>009-017-018-025>027-261100-
NORTHEAST INDIANA

CITY           SKY/WX    TMP DP  RH WIND       PRES   REMARKS
ANGOLA *+      CLEAR     61  48  63 CALM      30.13R
AUBURN +       FOG       66  64  94 CALM      30.13R VSB 1/2
FORT WAYNE     FOG       68  66  93 CALM      30.13R VSB 1/2
HUNTINGTON +   FOG      N/A N/A N/A CALM      30.12R VSB 1/4

$$

INZ028-029-035-036-043>045-051>053-261100-
WEST CENTRAL INDIANA

CITY           SKY/WX    TMP DP  RH WIND       PRES   REMARKS
CRAWFORDSVL +  FAIR      69  69 100 CALM      30.09S
GREENCASTLE +  FAIR      72  72 100 CALM      30.09S FOG
LAFAYETTE      MOCLDY    71  70  96 NE5       30.09S
TERRE HAUTE    FAIR      71  69  93 CALM      30.08R FOG

$$

INZ030>032-037>040-046>048-054>057-064-065-261100-
CENTRAL INDIANA

CITY           SKY/WX    TMP DP  RH WIND       PRES   REMARKS
INDIANAPOLIS   FAIR      75  72  90 E6        30.08S
-EAGLE CREEK   FAIR      74  72  93 N3        30.08F
MARION +       FAIR      66  66 100 CALM      30.12S FOG
MT COMFORT *+  FAIR      70  70 100 NE3       30.10S
SHELBYVILLE    CLOUDY    71  68  90 CALM      30.10R FOG
ZIONSVILLE +   FAIR      70  69  98 CALM      30.11S

$$

INZ033-034-041-042-049-050-058-059-261100-
EAST CENTRAL INDIANA

CITY           SKY/WX    TMP DP  RH WIND       PRES   REMARKS
MUNCIE         MOCLDY    72  69  90 CALM      30.11R

$$

INZ060-061-067>069-081>083-085>088-261100-
SOUTHWEST INDIANA

CITY           SKY/WX    TMP DP  RH WIND       PRES   REMARKS
EVANSVILLE     FAIR      72  70  93 CALM      30.08R
HUNTINGBURG *+ FAIR      72  68  88 SE3       30.09R
WASHINGTON +   FAIR      72  72 100 MISG      30.07S

$$

INZ062-063-066-070>080-084-089>092-261100-
SOUTH CENTRAL AND SOUTHEAST INDIANA

CITY           SKY/WX    TMP DP  RH WIND       PRES   REMARKS
BLOOMINGTON    FAIR      71  69  93 CALM      30.09S
MADISON *+     FAIR      70  68  94 CALM      30.13R

$$





USA.gov is the U.S. government's official web portal to all federal, state and local government web resources and services.